Regional Weather Roundup
Issued by NWS

Home | Current Version | Previous Version | Text Only | Print | Product List | Glossary Off
Versions: 1 2 3 4 5 6 7 8 9 10 11 12 13 14 15 16 17 18 19 20 21 22 23 24 25 26 27 28 29 30 31 32 33 34 35 36 37 38 39 40 41 42 43 44 45 46 47 48 49 50

596
ASUS43 KDTX 302110
RWRMI
MICHIGAN HOURLY REGIONAL WEATHER ROUNDUP
NATIONAL WEATHER SERVICE DETROIT/PONTIAC MI
500 PM EDT MON MAY 30 2016

NOTE: "FAIR" INDICATES FEW OR NO CLOUDS BELOW 12,000 FEET WITH NO
SIGNIFICANT WEATHER AND/OR OBSTRUCTION TO VISIBILITY.

MIZ047>049-052>055-059>063-066>070-074>076-081>083-302200-
SOUTHEAST LOWER MICHIGAN

CITY           SKY/WX    TMP DP  RH WIND       PRES   REMARKS
ADRIAN         SUNNY     86  50  28 N8        29.97F
ALMA           PTSUNNY   80  53  38 MISG      29.96F
ANN ARBOR      MOSUNNY   83  53  35 NW9       29.96F
BAD AXE        MOSUNNY   79  52  38 W8G20     29.95F
CARO           PTSUNNY   82  53  37 W10       29.94F
DETROIT CITY   PTSUNNY   84  52  33 N9        29.95F
DETROIT        MOSUNNY   84  54  35 W10       29.95F
FLINT          CLOUDY    83  53  35 W9        29.95F
GROSSE ILE     MOSUNNY   81  63  54 S7        29.95F
HILLSDALE      SUNNY     82  41  23 W6        29.99F
HOWELL         MOSUNNY   82  49  31 W7        29.97F

CITY           SKY/WX    TMP DP  RH WIND       PRES   REMARKS
JACKSON        MOSUNNY   81  51  35 W10G20    29.97F
LAMBERTVILLE   SUNNY     85  51  30 W5        29.97F
LANSING        MOSUNNY   83  53  35 W13       29.97F
LAPEER         FAIR      82  50  32 W8G17     29.96F
MASON          PTSUNNY   80  55  41 NW12G21   29.97F
MONROE         SUNNY     84  56  37 NW7       29.95S
MT. CLEMENS    SUNNY     80  59  47 SE7       29.94F
PONTIAC        MOSUNNY   82  52  35 W10       29.96F
PORT HOPE        N/A     69  58  67 SE8       29.93F
PORT HURON     MOSUNNY   81  55  41 SW3       29.95F
TRI CITIES     MOSUNNY   82  52  35 W14       29.95F
MIDLAND        FAIR      82  51  34 NW8G18    29.93F
TROY           SUNNY     84  51  31 NW8G16    29.97F
SAGINAW HB     MOSUNNY   82  50  32 W13       29.94F
$$
MIZ043>046-050>051-056>058-064>065-071>073-077>080-302200-
SOUTHWEST LOWER MICHIGAN

CITY           SKY/WX    TMP DP  RH WIND       PRES   REMARKS
BATTLE CREEK   MOSUNNY   81  52  36 NW16      29.99F
BENTON HARBOR  SUNNY     81  55  40 CALM      30.00S
BIG RAPIDS     SUNNY     79  47  32 W13G20    29.97F
COLDWATER      MOSUNNY   83  49  30 NW9       29.99S
FREMONT        FAIR      80  49  33 NW13      29.97F
HOLLAND        SUNNY     80  55  42 W7        30.01F
GRAND RAPIDS   MOSUNNY   82  54  37 W10       29.99S
IONIA          FAIR      81  49  33 W7        29.97S
KALAMAZOO      SUNNY     82  52  35 NW15      29.99F
LUDINGTON      SUNNY     76  57  51 N9        29.99F
MARSHALL       SUNNY     83  51  33 W8        29.97F
MOUNT PLEASANT MOSUNNY   80  51  35 NW7G16    29.95F
MUSKEGON       MOSUNNY   78  56  46 SW8       29.99F
SOUTH HAVEN    SUNNY     79  55  42 W6        30.00S
$$
MIZ016>042-302200-
NORTHERN LOWER MICHIGAN

CITY           SKY/WX    TMP DP  RH WIND       PRES   REMARKS
ALPENA         MOSUNNY   77  45  32 W12G24    29.94S
BEAVER ISLAND  SUNNY     71  52  51 SW13      29.96F
BELLAIRE       SUNNY     74  49  40 W5        29.98F
CADILLAC       SUNNY     76  45  32 NW10      29.99F
CHARLEVOIX     SUNNY     73  53  49 SW12      30.00F
FRANKFORT      SUNNY     75  54  48 W3        29.99F
GAYLORD        MOSUNNY   73  46  38 W9        29.99S
GRAYLING       SUNNY     76  45  33 W17G25    29.99S
HARBOR SPRINGS SUNNY     70  55  58 W8        29.97F
HOUGHTON LAKE  SUNNY     77  44  30 W10       29.97F
OSCODA         PTSUNNY   85  46  24 W17G26    29.91F
PELLSTON       SUNNY     74  50  42 SW13G21   29.96F
ROGERS CITY    PTSUNNY   72  49  44 NW7G16    29.95S
TRAVERSE CITY  MOSUNNY   77  46  33 NW16      29.96F
$$
MIZ007>008-015-302200-
EASTERN UPPER MICHIGAN

CITY           SKY/WX    TMP DP  RH WIND       PRES   REMARKS
KINROSS          N/A     66  54  63 N18       29.93S
MACKINAC ISLAN SUNNY     67  55  65 SW15G23   29.94F
NEWBERRY       MOSUNNY   73  48  41 W17G28    29.94S
S. S. MARIE    SUNNY     67  53  61 NW12G22   29.93S
MUNISING         N/A     68  50  52 NW9       29.95S
$$
MIZ004>006-011>014-085-302200-
CENTRAL UPPER MICHIGAN

CITY           SKY/WX    TMP DP  RH WIND       PRES   REMARKS
MANISTIQUE     MOSUNNY   67  54  61 S8        29.93F
ESCANABA       MOSUNNY   79  45  29 NW8       29.93F
MENOMINEE      PTSUNNY   79  46  31 N8        29.96S
SAWYER-GWINN   MOSUNNY   77  41  27 NW20G29   29.96S
$$
MIZ001>003-009>011-084-302200-
WESTERN UPPER MICHIGAN

CITY           SKY/WX    TMP DP  RH WIND       PRES   REMARKS
IRON MOUNTAIN  SUNNY     77  44  30 W7        29.95F
HOUGHTON       SUNNY     73  48  41 W22G30    29.94S
COPPER HARBOR    N/A     69  50  50 N18G31    29.92R
IRONWOOD       SUNNY     75  45  33 NW10      29.95S
$$

ABBREVIATIONS USED IN REMARKS
   TC - TEMPERATURE IN CELSIUS
  WCI - WIND CHILL INDEX
   HX - HEAT INDEX
  VSB - VISIBILITY





USA.gov is the U.S. government's official web portal to all federal, state and local government web resources and services.